STARLINK-32490, 62126

Orbit data source: Space-Track

STARLINK-32490, 62126 is a payload satellite owned by SpaceX/Seattle (US) in LEO that was launched on Wed, 27 Nov 2024 UTC via an FALCON 9 launch vehicle from the Air Force Eastern Test Range (AFETR). Payload-class satellites include a variety of spacecraft equipped with specific instruments for various scientific and technological missions. These include communications satellites like Starlink; space stations such as the ISS; scientific satellites like the Hubble; Earth observation satellites from companies like Planet Labs, Umbra, and HawkEye 360; GPS; miniature CubeSats for education and research; and military/defense satellites.

Loading next visibility...
Identifier
62126, 2024-222N
Orbit
LEO
Country
Flag of USUS
Related business
Manufacturer
SpaceX/Seattle
Mission
Operational Commercial Communications
Bus & Motor
STARLINK V2M, Unknown motor
Mass
730 kg wet, ~700 kg dry
Launch date (UTC)
2024-11-27 (2 years ago)
Launch vehicle
FALCON 9
Launch site
Air Force Eastern Test Range (AFETR)
Object type
Payload
Rocket body
Debris
Shape & HBR
Box + 2 Pan, 17.7 m
Radar Cross Section
33.884 m², Large (>1 m²)

Expand to show TLE details & history
Last TLE update: 1 day ago

TLE from 1 day ago
0 STARLINK-32490
1 62126U 24222N   26170.76336170  .00015456  00000-0  56967-3 0  9995
2 62126  43.0020 279.3998 0001586 264.0347  96.0324 15.27599164 88369
Epoch: 2026-06-19T18:19Z
TLE epoch observation values (Epoch: 2026-06-19T18:19:14.450Z)
Latitude
-0.00003°
Longitude
96.60189°
Altitude
482.882 km
Speed
7.626 km/s
True Right ascension
18h 37m 35s
True Declination
0° 00' 00"
Sunlit
Object was in full shadow at epoch
Visualization orbit readout
Latitude
Unknown
Longitude
Unknown
Altitude
Unknown
Speed
Unknown
Apparent Right ascension
Unknown
Apparent Declination
Unknown
Sunlit
N/A
Visualization observer readout
Local Sidereal Time
07:17:02
Azimuth
Unknown
Elevation
Unknown
Doppler factor
Unknown
Orbital elements
Apogee altitude
486.025 km
Perigee altitude
483.848 km
Semi-major axis
6,863.074 km
Eccentricity
0.00016
Inclination
43.002°
RAAN
279.3998°
Arg. of periapsis
264.0347°
True anomaly
96.05047°
Mean anomaly
96.0324°
Eccentric anomaly
96.04144°
Mean motion
3.81738 °/min
Orbital period
94.31 mins
BSTAR
0.00056967
Loading maneuver chart data...
Computing Atmospheric mass density...
Loading historical data...
Loading historical data...
Loading historical data...
Loading historical data...
Loading historical data...
Loading historical data...
Loading historical data...

Documentation

Showing up to 5 results
|